Retour au catalogue

STARLINK-36651

ActifCommunicationsVLEO
NORAD 67840·PAYLOAD·🇺🇸 United States

Lancé Feb 16, 2026 depuis Vandenberg Space Force Base

Loading…

Prochains Passages (prochaines 24 heures)

TLE

FraisSource: CelesTrak SupGP

Époque: Sep 15, 2026, 03:04 UTC

1 67840C 26033V   26258.12826389 -.00007263  00000+0 -26302-3 0  2584
2 67840  43.0022 277.2353 0001462 272.1435 168.4165 15.27588893    12

Suivez STARLINK-36651 en temps réel avec AllMySat

Download on the App Store